Weather in Oktyabr'skiy

Russia / Udmurt Republic     56°50′21″N   53°19′25″E
temp.,
°C
wind,
m/s
gust,
m/s
humid.,
%
clouds,
%
prec.,
mm/h
press.,
hPa
HPBL,
m
11 may, tue
tue1101:00+15n3369100 0.0 102233
04:00+13n2276100 0.0 102416
07:00+16ne236995 0.0 1025132
10:00+20ene2253100 0.0 1026506
13:00+24e1138100 0.0 10261144
16:00+25se11315 0.0 10262547
19:00+22n234634 0.0 102657
22:00+17ene49725 0.0 1028180
12 may, wed
wed1201:00+15ne34805 0.0 102852
04:00+13ene35875 0.0 102978
07:00+16ene35755 0.0 1030238
10:00+21ene34565 0.0 1030717
13:00+24e22430 0.0 10291493
16:00+25se013722 0.0 10282209
19:00+23se224860 0.0 102716
22:00+20ese225591 0.0 102818
13 may, thu
thu1301:00+19sse115997 0.0 102816
04:00+18sw115972 0.0 102811
07:00+19sse11540 0.0 1028119
10:00+23sse33395 0.0 1028797
13:00+25sse45358 0.0 10272077
16:00+25s4529100 0.0 10271946
19:00+22ssw224421 0.0 102622
22:00+18sse22495 0.0 102611
14 may, fri
fri1401:00+17sse22555 0.0 102611
04:00+15sse22618 0.0 102612
07:00+18s245810 0.0 1026155
10:00+23ssw463991 0.0 1025766
13:00+25ssw4633100 0.1 10241628
16:00+27ssw57319 0.2 10231977
19:00+23sw37485 0.0 1022130
22:00+19ssw3659100 0.0 102275
15 may, sat
sat1501:00+17ssw366584 0.0 102292
04:00+15sw356750 0.0 102367
07:00+19ssw375826 0.0 1023202
10:00+24ssw57386 0.0 1022671
13:00+27ssw67305 0.0 10211258
16:00+27sw67335 0.0 10201442
19:00+24ssw37491 0.0 1019132
22:00+19ssw36560 0.0 101970